ECO2827 SBRF-SBSV

Flight info

Callsign ECO2827
Flight time N/A
Altitude 36000
Route MEXAR UZ14 AKPAS
Aircraft B738/M-SDE2E3FGHIRWXY/LB1

Departure

Time N/A
Airport Recife/Guararapes - Gilberto Freyre International Airport (SBRF)

Arrival

Time 2026-04-27 12:49
Airport Deputado Luiz Eduardo Magalhães International Airport (SBSV)
Time Latitude Longitude Altitude Speed Heading
2026-04-27 12:08 -10.07576 -36.11608 35999 ft 444 kts 214°
2026-04-27 12:08 -10.10076 -36.13379 36000 ft 444 kts 215°
2026-04-27 12:09 -10.15165 -36.16984 36000 ft 444 kts 215°
2026-04-27 12:09 -10.20209 -36.20559 36000 ft 444 kts 215°
2026-04-27 12:10 -10.25252 -36.24136 36000 ft 444 kts 215°
2026-04-27 12:10 -10.30304 -36.27719 36000 ft 444 kts 215°
2026-04-27 12:11 -10.35370 -36.31314 36000 ft 444 kts 215°
2026-04-27 12:11 -10.40390 -36.34878 36000 ft 444 kts 215°
2026-04-27 12:12 -10.45464 -36.38482 36000 ft 444 kts 215°
2026-04-27 12:12 -10.50505 -36.42063 36000 ft 444 kts 215°
2026-04-27 12:13 -10.55513 -36.45623 36000 ft 444 kts 215°
2026-04-27 12:13 -10.60575 -36.49222 36000 ft 444 kts 215°
2026-04-27 12:14 -10.65618 -36.52809 36000 ft 444 kts 215°
2026-04-27 12:14 -10.70663 -36.56400 36000 ft 444 kts 215°
2026-04-27 12:15 -10.75685 -36.59975 35999 ft 444 kts 215°
2026-04-27 12:15 -10.80744 -36.63578 35999 ft 444 kts 215°
2026-04-27 12:16 -10.85756 -36.67159 36000 ft 444 kts 215°
2026-04-27 12:16 -10.90803 -36.70786 36000 ft 444 kts 215°
2026-04-27 12:17 -10.95827 -36.74398 36000 ft 444 kts 215°
2026-04-27 12:17 -11.00869 -36.78025 36000 ft 444 kts 215°
2026-04-27 12:18 -11.05888 -36.81635 36000 ft 444 kts 215°
2026-04-27 12:18 -11.10897 -36.85240 35999 ft 444 kts 215°
2026-04-27 12:19 -11.15937 -36.88868 36000 ft 444 kts 215°
2026-04-27 12:19 -11.20983 -36.92503 36000 ft 444 kts 215°
2026-04-27 12:20 -11.26000 -36.96118 36000 ft 444 kts 215°
2026-04-27 12:20 -11.31011 -36.99730 36000 ft 444 kts 215°
2026-04-27 12:21 -11.36078 -37.03384 36000 ft 444 kts 215°
2026-04-27 12:21 -11.41073 -37.06988 36000 ft 444 kts 215°
2026-04-27 12:22 -11.46118 -37.10629 35999 ft 444 kts 215°
2026-04-27 12:22 -11.51140 -37.14256 36000 ft 444 kts 215°
2026-04-27 12:23 -11.56172 -37.17891 36000 ft 444 kts 215°
2026-04-27 12:23 -11.61222 -37.21540 35999 ft 444 kts 215°
2026-04-27 12:24 -11.66255 -37.25180 36000 ft 444 kts 215°
2026-04-27 12:24 -11.71265 -37.28804 36000 ft 444 kts 215°
2026-04-27 12:25 -11.76270 -37.32426 35999 ft 444 kts 215°
2026-04-27 12:25 -11.81291 -37.36062 35920 ft 442 kts 215°
2026-04-27 12:25 -11.83789 -37.37871 35350 ft 440 kts 215°
2026-04-27 12:26 -11.86300 -37.39691 34582 ft 442 kts 215°
2026-04-27 12:26 -11.88775 -37.41483 33874 ft 442 kts 215°
2026-04-27 12:26 -11.91285 -37.43303 33155 ft 442 kts 215°
2026-04-27 12:26 -11.93739 -37.45138 32443 ft 442 kts 218°
2026-04-27 12:27 -11.96127 -37.47145 31705 ft 441 kts 220°
2026-04-27 12:27 -11.98441 -37.49150 30981 ft 441 kts 220°
2026-04-27 12:27 -12.00752 -37.51150 30452 ft 435 kts 220°
2026-04-27 12:27 -12.03021 -37.53108 29889 ft 431 kts 220°
2026-04-27 12:28 -12.05305 -37.55075 29309 ft 427 kts 220°
2026-04-27 12:28 -12.07583 -37.57033 28730 ft 423 kts 220°
2026-04-27 12:28 -12.09793 -37.58930 28168 ft 419 kts 220°
2026-04-27 12:28 -12.12020 -37.60840 27597 ft 415 kts 220°
2026-04-27 12:29 -12.14227 -37.62731 27031 ft 412 kts 220°
2026-04-27 12:29 -12.16392 -37.64587 26477 ft 408 kts 220°
2026-04-27 12:29 -12.18542 -37.66428 25920 ft 405 kts 220°
2026-04-27 12:29 -12.20700 -37.68276 25358 ft 401 kts 220°
2026-04-27 12:30 -12.22806 -37.70079 24813 ft 398 kts 220°
2026-04-27 12:30 -12.24934 -37.71902 24255 ft 394 kts 220°
2026-04-27 12:30 -12.27025 -37.73693 23710 ft 391 kts 220°
2026-04-27 12:30 -12.29087 -37.75460 23168 ft 388 kts 220°
2026-04-27 12:31 -12.31130 -37.77209 22630 ft 385 kts 220°
2026-04-27 12:31 -12.33174 -37.78961 22092 ft 381 kts 220°
2026-04-27 12:31 -12.35204 -37.80700 21553 ft 378 kts 220°
2026-04-27 12:31 -12.37210 -37.82420 21021 ft 375 kts 220°
2026-04-27 12:32 -12.39196 -37.84123 20486 ft 372 kts 220°
2026-04-27 12:32 -12.41161 -37.85807 19959 ft 370 kts 220°
2026-04-27 12:32 -12.43111 -37.87480 19437 ft 367 kts 220°
2026-04-27 12:32 -12.45067 -37.89158 18905 ft 360 kts 220°
2026-04-27 12:33 -12.46927 -37.90754 18404 ft 347 kts 220°
2026-04-27 12:33 -12.48765 -37.92331 17907 ft 335 kts 220°
2026-04-27 12:33 -12.50497 -37.93818 17433 ft 324 kts 220°
2026-04-27 12:33 -12.52229 -37.95299 16961 ft 314 kts 219°
2026-04-27 12:34 -12.53885 -37.96678 16507 ft 306 kts 219°
2026-04-27 12:34 -12.55536 -37.98043 16059 ft 298 kts 219°
2026-04-27 12:34 -12.57129 -37.99362 15630 ft 291 kts 219°
2026-04-27 12:34 -12.58684 -38.00650 15210 ft 286 kts 219°
2026-04-27 12:35 -12.60237 -38.01937 14791 ft 285 kts 219°
2026-04-27 12:35 -12.61759 -38.03200 14375 ft 284 kts 219°
2026-04-27 12:35 -12.63303 -38.04482 13951 ft 283 kts 219°
2026-04-27 12:35 -12.64805 -38.05729 13539 ft 281 kts 219°
2026-04-27 12:36 -12.66341 -38.07004 13121 ft 279 kts 219°
2026-04-27 12:36 -12.67830 -38.08240 12711 ft 277 kts 219°
2026-04-27 12:36 -12.69313 -38.09471 12304 ft 275 kts 219°
2026-04-27 12:36 -12.70803 -38.10709 11896 ft 274 kts 219°
2026-04-27 12:37 -12.72254 -38.11914 11496 ft 272 kts 219°
2026-04-27 12:37 -12.73735 -38.13145 11084 ft 271 kts 219°
2026-04-27 12:37 -12.75197 -38.14360 10697 ft 268 kts 219°
2026-04-27 12:37 -12.76568 -38.15601 10466 ft 262 kts 229°
2026-04-27 12:38 -12.77496 -38.17150 10358 ft 254 kts 251°
2026-04-27 12:38 -12.77920 -38.18926 10271 ft 255 kts 258°
2026-04-27 12:38 -12.78258 -38.20704 10129 ft 257 kts 258°
2026-04-27 12:38 -12.78610 -38.22506 9844 ft 257 kts 258°
2026-04-27 12:39 -12.78966 -38.24286 9503 ft 253 kts 258°
2026-04-27 12:39 -12.79320 -38.26041 9194 ft 250 kts 258°
2026-04-27 12:39 -12.79674 -38.27778 8889 ft 250 kts 258°
2026-04-27 12:39 -12.80026 -38.29506 8571 ft 244 kts 258°
2026-04-27 12:40 -12.80367 -38.31182 8278 ft 241 kts 258°
2026-04-27 12:40 -12.80710 -38.32864 7986 ft 241 kts 258°
2026-04-27 12:40 -12.81056 -38.34563 7680 ft 241 kts 258°
2026-04-27 12:40 -12.81396 -38.36235 7379 ft 240 kts 258°
2026-04-27 12:41 -12.81734 -38.37896 7152 ft 240 kts 258°
2026-04-27 12:41 -12.82068 -38.39551 6850 ft 236 kts 258°
2026-04-27 12:41 -12.82402 -38.41217 6167 ft 240 kts 258°
2026-04-27 12:41 -12.82736 -38.42888 5431 ft 241 kts 258°
2026-04-27 12:42 -12.83067 -38.44544 4898 ft 233 kts 258°
2026-04-27 12:42 -12.83381 -38.46111 4632 ft 216 kts 258°
2026-04-27 12:42 -12.83674 -38.47578 4616 ft 212 kts 258°
2026-04-27 12:42 -12.83969 -38.49052 4533 ft 205 kts 258°
2026-04-27 12:43 -12.84380 -38.50408 4469 ft 202 kts 241°
2026-04-27 12:43 -12.85344 -38.51445 4380 ft 203 kts 210°
2026-04-27 12:43 -12.86700 -38.51862 4154 ft 203 kts 182°
2026-04-27 12:43 -12.88091 -38.51687 3933 ft 200 kts 168°
2026-04-27 12:44 -12.89415 -38.51395 3745 ft 193 kts 167°
2026-04-27 12:44 -12.90724 -38.51114 3503 ft 188 kts 168°
2026-04-27 12:44 -12.91996 -38.50847 3343 ft 186 kts 168°
2026-04-27 12:44 -12.93173 -38.50370 3290 ft 182 kts 143°
2026-04-27 12:45 -12.93925 -38.49351 3190 ft 179 kts 111°
2026-04-27 12:45 -12.94063 -38.48081 2827 ft 179 kts 82°
2026-04-27 12:45 -12.93811 -38.46872 2557 ft 172 kts 76°
2026-04-27 12:45 -12.93544 -38.45673 2363 ft 171 kts 77°
2026-04-27 12:46 -12.93315 -38.44546 2087 ft 158 kts 78°
2026-04-27 12:46 -12.93098 -38.43466 1929 ft 152 kts 78°
2026-04-27 12:46 -12.92885 -38.42397 1726 ft 154 kts 78°
2026-04-27 12:46 -12.92670 -38.41324 1501 ft 150 kts 78°
2026-04-27 12:47 -12.92461 -38.40279 1318 ft 150 kts 78°
2026-04-27 12:47 -12.92252 -38.39230 1113 ft 151 kts 78°
2026-04-27 12:47 -12.92042 -38.38178 908 ft 150 kts 78°
2026-04-27 12:47 -12.91833 -38.37133 714 ft 149 kts 78°
2026-04-27 12:48 -12.91628 -38.36109 513 ft 148 kts 78°
2026-04-27 12:48 -12.91414 -38.35084 339 ft 146 kts 78°
2026-04-27 12:48 -12.91209 -38.34052 177 ft 149 kts 80°
2026-04-27 12:48 -12.91014 -38.33018 46 ft 146 kts 78°
2026-04-27 12:49 -12.90838 -38.32148 49 ft 86 kts 78°
2026-04-27 12:49 -12.90773 -38.31811 54 ft 23 kts 94°
2026-04-27 12:49 -12.90844 -38.31712 57 ft 17 kts 178°
2026-04-27 12:49 -12.90915 -38.31790 54 ft 19 kts 258°
2026-04-27 12:50 -12.90944 -38.31929 50 ft 20 kts 259°
2026-04-27 12:50 -12.90978 -38.32064 49 ft 20 kts 257°
2026-04-27 12:50 -12.91006 -38.32206 48 ft 20 kts 259°
2026-04-27 12:50 -12.91034 -38.32351 46 ft 22 kts 258°
2026-04-27 12:51 -12.91066 -38.32521 43 ft 26 kts 260°
2026-04-27 12:51 -12.91103 -38.32716 41 ft 28 kts 259°
2026-04-27 12:51 -12.91140 -38.32924 40 ft 30 kts 260°
2026-04-27 12:51 -12.91213 -38.33109 40 ft 26 kts 205°
2026-04-27 12:52 -12.91281 -38.33240 42 ft 18 kts 253°
2026-04-27 12:52 -12.91334 -38.33269 42 ft 0 kts 172°
2026-04-27 12:52 -12.91338 -38.33269 42 ft 0 kts 173°